| time (UTC) | temp F | wind direction | speed MPH | gust MPH | rain 1hr in | rain 24hr in | rain mn in | humidity % | barometer mb |
| 20260508200047 | 58 | 261 | 7.0 | 13.0 | 0.00 | 0.00 | 0.00 | 67 | 1021.9 |
| 20260508195526 | 58 | 233 | 7.0 | 13.0 | 0.00 | 0.00 | 0.00 | 68 | 1021.9 |
| 20260508195030 | 58 | 245 | 6.0 | 11.0 | 0.00 | 0.00 | 0.00 | 66 | 1021.9 |
| 20260508194546 | 58 | 199 | 5.0 | 12.0 | 0.00 | 0.00 | 0.00 | 68 | 1021.9 |
| 20260508194026 | 58 | 259 | 6.0 | 12.0 | 0.00 | 0.00 | 0.00 | 69 | 1021.8 |
| 20260508193527 | 58 | 202 | 5.0 | 11.0 | 0.00 | 0.00 | 0.00 | 70 | 1021.9 |
| 20260508193045 | 58 | 197 | 4.0 | 10.0 | 0.00 | 0.00 | 0.00 | 69 | 1021.8 |
| 20260508192526 | 58 | 259 | 4.0 | 10.0 | 0.00 | 0.00 | 0.00 | 70 | 1021.8 |
| 20260508192026 | 57 | 253 | 6.0 | 12.0 | 0.00 | 0.00 | 0.00 | 71 | 1021.9 |
| 20260508191539 | 57 | 195 | 7.0 | 14.0 | 0.00 | 0.00 | 0.00 | 71 | 1022.0 |
| 20260508191027 | 57 | 205 | 7.0 | 14.0 | 0.00 | 0.00 | 0.00 | 69 | 1021.9 |
| 20260508190526 | 57 | 182 | 7.0 | 13.0 | 0.00 | 0.00 | 0.00 | 72 | 1021.9 |
| 20260508190053 | 56 | 194 | 5.0 | 9.0 | 0.00 | 0.00 | 0.00 | 73 | 1021.9 |
| 20260508185527 | 56 | 258 | 4.0 | 9.0 | 0.00 | 0.00 | 0.00 | 75 | 1021.9 |
| 20260508185028 | 56 | 273 | 3.0 | 9.0 | 0.00 | 0.00 | 0.00 | 73 | 1021.9 |
| 20260508184556 | 55 | 225 | 5.0 | 8.0 | 0.00 | 0.00 | 0.00 | 73 | 1021.9 |
| 20260508184026 | 55 | 220 | 5.0 | 11.0 | 0.00 | 0.00 | 0.00 | 74 | 1021.9 |
| 20260508183526 | 55 | 209 | 6.0 | 11.0 | 0.00 | 0.00 | 0.00 | 74 | 1021.9 |
| 20260508183040 | 54 | 193 | 4.0 | 12.0 | 0.00 | 0.00 | 0.00 | 75 | 1021.9 |
| 20260508182527 | 54 | 256 | 6.0 | 12.0 | 0.00 | 0.00 | 0.00 | 74 | 1022.0 |
| 20260508182026 | 54 | 210 | 5.0 | 9.0 | 0.00 | 0.00 | 0.00 | 74 | 1022.0 |
| 20260508181550 | 54 | 232 | 3.0 | 9.0 | 0.00 | 0.00 | 0.00 | 76 | 1021.9 |
| 20260508181027 | 54 | 243 | 4.0 | 9.0 | 0.00 | 0.00 | 0.00 | 75 | 1021.9 |
| 20260508180526 | 54 | 236 | 3.0 | 9.0 | 0.00 | 0.00 | 0.00 | 75 | 1021.8 |
| 20260508180039 | 54 | 196 | 4.0 | 9.0 | 0.00 | 0.00 | 0.00 | 76 | 1021.7 |
| 20260508175527 | 54 | 242 | 4.0 | 9.0 | 0.00 | 0.00 | 0.00 | 75 | 1021.9 |
| 20260508175029 | 53 | 230 | 5.0 | 10.0 | 0.00 | 0.00 | 0.00 | 75 | 1021.8 |
| 20260508174546 | 53 | 198 | 4.0 | 11.0 | 0.00 | 0.00 | 0.00 | 77 | 1021.7 |
| 20260508174027 | 53 | 266 | 4.0 | 11.0 | 0.00 | 0.00 | 0.00 | 76 | 1021.7 |
| 20260508173527 | 53 | 181 | 7.0 | 11.0 | 0.00 | 0.00 | 0.00 | 76 | 1021.7 |
| 20260508173046 | 53 | 206 | 3.0 | 10.0 | 0.00 | 0.00 | 0.00 | 77 | 1021.7 |
| 20260508172527 | 53 | 190 | 3.0 | 6.0 | 0.00 | 0.00 | 0.00 | 77 | 1021.6 |
| 20260508172027 | 53 | 239 | 3.0 | 10.0 | 0.00 | 0.00 | 0.00 | 78 | 1021.5 |
| 20260508171541 | 53 | 223 | 4.0 | 10.0 | 0.00 | 0.00 | 0.00 | 77 | 1021.5 |
| 20260508171026 | 52 | 228 | 5.0 | 9.0 | 0.00 | 0.00 | 0.00 | 77 | 1021.4 |
| 20260508170526 | 52 | 237 | 3.0 | 9.0 | 0.00 | 0.00 | 0.00 | 77 | 1021.2 |
| 20260508170042 | 52 | 240 | 4.0 | 9.0 | 0.00 | 0.00 | 0.00 | 77 | 1021.1 |
| 20260508165526 | 52 | 205 | 3.0 | 8.0 | 0.00 | 0.00 | 0.00 | 77 | 1021.0 |
| 20260508165026 | 52 | 186 | 3.0 | 9.0 | 0.00 | 0.00 | 0.00 | 79 | 1021.0 |
| 20260508164554 | 52 | 229 | 3.0 | 9.0 | 0.00 | 0.00 | 0.00 | 79 | 1021.1 |
| 20260508164027 | 52 | 236 | 5.0 | 9.0 | 0.00 | 0.00 | 0.00 | 79 | 1021.3 |
| 20260508163531 | 52 | 239 | 3.0 | 13.0 | 0.00 | 0.00 | 0.00 | 79 | 1021.4 |
| 20260508163047 | 52 | 202 | 6.0 | 13.0 | 0.00 | 0.00 | 0.00 | 79 | 1021.2 |
| 20260508162527 | 52 | 216 | 3.0 | 10.0 | 0.00 | 0.00 | 0.00 | 79 | 1021.3 |
| 20260508162029 | 52 | 240 | 5.0 | 14.0 | 0.00 | 0.00 | 0.00 | 78 | 1021.1 |
| 20260508161549 | 52 | 240 | 5.0 | 14.0 | 0.00 | 0.00 | 0.00 | 78 | 1020.9 |
| 20260508161027 | 53 | 169 | 5.0 | 10.0 | 0.00 | 0.00 | 0.00 | 77 | 1020.8 |
| 20260508160526 | 53 | 221 | 3.0 | 9.0 | 0.00 | 0.00 | 0.00 | 79 | 1020.8 |
| 20260508160043 | 52 | 207 | 3.0 | 9.0 | 0.00 | 0.00 | 0.00 | 79 | 1020.7 |
| 20260508155529 | 52 | 168 | 5.0 | 9.0 | 0.00 | 0.00 | 0.00 | 79 | 1020.7 |
| 20260508155027 | 52 | 251 | 3.0 | 9.0 | 0.00 | 0.00 | 0.00 | 80 | 1020.6 |
| 20260508154543 | 52 | 219 | 3.0 | 7.0 | 0.00 | 0.00 | 0.00 | 80 | 1020.7 |
| 20260508154026 | 51 | 248 | 4.0 | 7.0 | 0.00 | 0.00 | 0.00 | 81 | 1020.7 |
| 20260508153527 | 51 | 219 | 4.0 | 7.0 | 0.00 | 0.00 | 0.00 | 81 | 1020.6 |
| 20260508153041 | 51 | 242 | 3.0 | 8.0 | 0.00 | 0.00 | 0.00 | 81 | 1020.6 |
| 20260508152526 | 51 | 235 | 2.0 | 9.0 | 0.00 | 0.00 | 0.00 | 80 | 1020.4 |
| 20260508152027 | 51 | 179 | 4.0 | 9.0 | 0.00 | 0.00 | 0.00 | 81 | 1020.4 |
| 20260508151541 | 51 | 190 | 5.0 | 13.0 | 0.00 | 0.00 | 0.00 | 81 | 1020.4 |
| 20260508151028 | 51 | 248 | 6.0 | 13.0 | 0.00 | 0.00 | 0.00 | 81 | 1020.4 |
| 20260508150529 | 51 | 219 | 4.0 | 8.0 | 0.00 | 0.00 | 0.00 | 81 | 1020.5 |
| 20260508150040 | 51 | 227 | 4.0 | 11.0 | 0.00 | 0.00 | 0.00 | 82 | 1020.4 |
| 20260508145527 | 51 | 236 | 4.0 | 11.0 | 0.00 | 0.00 | 0.00 | 81 | 1020.2 |
| 20260508145027 | 51 | 240 | 4.0 | 8.0 | 0.00 | 0.00 | 0.00 | 82 | 1020.3 |
| 20260508144636 | 52 | 180 | 3.0 | 10.0 | 0.00 | 0.00 | 0.00 | 81 | 1020.3 |
| 20260508144026 | 52 | 207 | 5.0 | 10.0 | 0.00 | 0.00 | 0.00 | 82 | 1020.4 |
| 20260508143527 | 52 | 182 | 4.0 | 9.0 | 0.00 | 0.00 | 0.00 | 81 | 1020.3 |
| 20260508143044 | 52 | 194 | 5.0 | 9.0 | 0.00 | 0.00 | 0.00 | 83 | 1020.4 |
| 20260508142528 | 51 | 206 | 4.0 | 7.0 | 0.00 | 0.00 | 0.00 | 83 | 1020.4 |
| 20260508142026 | 51 | 199 | 3.0 | 11.0 | 0.00 | 0.00 | 0.00 | 82 | 1020.4 |
| 20260508141551 | 51 | 226 | 4.0 | 11.0 | 0.00 | 0.00 | 0.00 | 84 | 1020.3 |
| 20260508141026 | 50 | 209 | 5.0 | 11.0 | 0.00 | 0.00 | 0.00 | 84 | 1020.3 |
| 20260508140528 | 50 | 213 | 6.0 | 10.0 | 0.00 | 0.00 | 0.00 | 85 | 1020.3 |
| 20260508140048 | 50 | 197 | 3.0 | 8.0 | 0.00 | 0.00 | 0.00 | 86 | 1020.0 |
| 20260508135529 | 49 | 188 | 4.0 | 8.0 | 0.00 | 0.00 | 0.00 | 85 | 1020.0 |
| 20260508135029 | 49 | 210 | 3.0 | 7.0 | 0.00 | 0.00 | 0.00 | 86 | 1019.9 |
| 20260508134544 | 49 | 211 | 3.0 | 10.0 | 0.00 | 0.00 | 0.00 | 86 | 1019.8 |
| 20260508134028 | 49 | 208 | 4.0 | 11.0 | 0.00 | 0.00 | 0.00 | 86 | 1019.6 |
| 20260508133529 | 48 | 225 | 5.0 | 11.0 | 0.00 | 0.00 | 0.00 | 87 | 1019.7 |
| 20260508133108 | 48 | 200 | 5.0 | 9.0 | 0.00 | 0.00 | 0.00 | 88 | 1019.6 |
| 20260508132526 | 48 | 223 | 3.0 | 7.0 | 0.00 | 0.00 | 0.00 | 88 | 1019.6 |
| 20260508132026 | 48 | 163 | 3.0 | 9.0 | 0.00 | 0.00 | 0.00 | 88 | 1019.5 |
| 20260508131542 | 48 | 196 | 4.0 | 9.0 | 0.00 | 0.00 | 0.00 | 88 | 1019.4 |
| 20260508131029 | 48 | 184 | 5.0 | 8.0 | 0.00 | 0.00 | 0.00 | 88 | 1019.4 |
| 20260508130526 | 48 | 155 | 3.0 | 8.0 | 0.00 | 0.00 | 0.00 | 88 | 1019.4 |
| 20260508130045 | 48 | 152 | 2.0 | 10.0 | 0.00 | 0.00 | 0.00 | 88 | 1019.3 |
| 20260508125527 | 48 | 190 | 5.0 | 10.0 | 0.00 | 0.00 | 0.00 | 89 | 1019.3 |
| 20260508125027 | 48 | 165 | 3.0 | 9.0 | 0.00 | 0.00 | 0.00 | 89 | 1019.0 |
| 20260508124540 | 48 | 196 | 2.0 | 10.0 | 0.00 | 0.00 | 0.00 | 89 | 1018.9 |
| 20260508124027 | 48 | 235 | 4.0 | 10.0 | 0.00 | 0.00 | 0.00 | 89 | 1018.9 |
| 20260508123531 | 48 | 174 | 3.0 | 6.0 | 0.00 | 0.00 | 0.00 | 89 | 1018.8 |
| 20260508123059 | 48 | 155 | 3.0 | 6.0 | 0.00 | 0.00 | 0.00 | 89 | 1018.8 |
| 20260508122526 | 48 | 198 | 3.0 | 7.0 | 0.00 | 0.00 | 0.00 | 88 | 1018.8 |
| 20260508122026 | 48 | 175 | 2.0 | 8.0 | 0.00 | 0.00 | 0.00 | 88 | 1018.9 |
| 20260508121540 | 48 | 182 | 4.0 | 8.0 | 0.00 | 0.00 | 0.00 | 88 | 1018.9 |
| 20260508121028 | 48 | 198 | 3.0 | 7.0 | 0.00 | 0.00 | 0.00 | 89 | 1018.8 |
| 20260508120526 | 48 | 205 | 2.0 | 8.0 | 0.00 | 0.00 | 0.00 | 89 | 1018.9 |
| 20260508120040 | 48 | 259 | 3.0 | 9.0 | 0.00 | 0.00 | 0.00 | 90 | 1018.7 |
| 20260508115528 | 48 | 166 | 3.0 | 9.0 | 0.00 | 0.00 | 0.00 | 91 | 1018.7 |
| 20260508115026 | 47 | 207 | 3.0 | 9.0 | 0.00 | 0.00 | 0.00 | 91 | 1018.7 |
| 20260508114546 | 47 | 211 | 3.0 | 9.0 | 0.00 | 0.00 | 0.00 | 93 | 1018.6 |
| 20260508114026 | 46 | 219 | 2.0 | 5.0 | 0.00 | 0.00 | 0.00 | 94 | 1018.8 |
| 20260508113527 | 46 | 220 | 2.0 | 5.0 | 0.00 | 0.00 | 0.00 | 94 | 1018.6 |
| 20260508113059 | 45 | 159 | 0.0 | 2.0 | 0.00 | 0.00 | 0.00 | 94 | 1018.5 |
| 20260508112529 | 45 | 162 | 1.0 | 2.0 | 0.00 | 0.00 | 0.00 | 95 | 1018.6 |
| 20260508112027 | 45 | 126 | 1.0 | 2.0 | 0.00 | 0.00 | 0.00 | 95 | 1018.5 |
| 20260508111545 | 45 | 123 | 1.0 | 2.0 | 0.00 | 0.00 | 0.00 | 95 | 1018.5 |
| 20260508111025 | 45 | 118 | 1.0 | 2.0 | 0.00 | 0.00 | 0.00 | 95 | 1018.4 |
| 20260508110527 | 45 | 107 | 0.0 | 2.0 | 0.00 | 0.00 | 0.00 | 95 | 1018.3 |
| 20260508110050 | 45 | 157 | 1.0 | 2.0 | 0.00 | 0.00 | 0.00 | 95 | 1018.3 |
| 20260508105526 | 45 | 113 | 1.0 | 2.0 | 0.00 | 0.00 | 0.00 | 95 | 1018.3 |
| 20260508105027 | 45 | 138 | 0.0 | 2.0 | 0.00 | 0.00 | 0.00 | 95 | 1018.1 |
| 20260508104541 | 45 | 142 | 1.0 | 2.0 | 0.00 | 0.00 | 0.00 | 95 | 1018.1 |
| 20260508104026 | 44 | 114 | 1.0 | 2.0 | 0.00 | 0.00 | 0.00 | 95 | 1018.1 |
| 20260508103526 | 44 | 115 | 0.0 | 1.0 | 0.00 | 0.00 | 0.00 | 94 | 1018.1 |
| 20260508103047 | 45 | 0 | 0.0 | 1.0 | 0.00 | 0.00 | 0.00 | 95 | 1018.0 |
| 20260508102526 | 45 | 115 | 1.0 | 1.0 | 0.00 | 0.00 | 0.00 | 95 | 1017.9 |
| 20260508102027 | 45 | 130 | 1.0 | 1.0 | 0.00 | 0.00 | 0.00 | 95 | 1017.8 |
| 20260508101537 | 45 | 121 | 0.0 | 1.0 | 0.00 | 0.00 | 0.00 | 94 | 1017.9 |
| 20260508101026 | 45 | 121 | 0.0 | 1.0 | 0.00 | 0.00 | 0.00 | 95 | 1017.7 |
| 20260508100526 | 45 | 121 | 0.0 | 1.0 | 0.00 | 0.00 | 0.00 | 94 | 1017.7 |
| 20260508100043 | 45 | 121 | 0.0 | 0.0 | 0.00 | 0.00 | 0.00 | 94 | 1017.7 |
| 20260508095526 | 45 | 0 | 0.0 | 0.0 | 0.00 | 0.00 | 0.00 | 94 | 1017.7 |
| 20260508095025 | 45 | 0 | 0.0 | 1.0 | 0.00 | 0.00 | 0.00 | 94 | 1017.7 |
| 20260508094541 | 45 | 121 | 0.0 | 1.0 | 0.00 | 0.00 | 0.00 | 94 | 1017.7 |
| 20260508094025 | 45 | 121 | 0.0 | 1.0 | 0.00 | 0.00 | 0.00 | 94 | 1017.6 |
| 20260508093526 | 45 | 0 | 0.0 | 2.0 | 0.00 | 0.00 | 0.00 | 93 | 1017.5 |
| 20260508093041 | 46 | 121 | 1.0 | 2.0 | 0.00 | 0.00 | 0.00 | 94 | 1017.7 |
| 20260508092526 | 46 | 121 | 0.0 | 1.0 | 0.00 | 0.00 | 0.00 | 94 | 1017.6 |
| 20260508092026 | 46 | 121 | 0.0 | 1.0 | 0.00 | 0.00 | 0.00 | 94 | 1017.6 |
| 20260508091551 | 46 | 121 | 1.0 | 1.0 | 0.00 | 0.00 | 0.00 | 94 | 1017.7 |
| 20260508091026 | 46 | 0 | 0.0 | 0.0 | 0.00 | 0.00 | 0.00 | 93 | 1017.7 |
| 20260508090526 | 46 | 0 | 0.0 | 1.0 | 0.00 | 0.00 | 0.00 | 93 | 1017.6 |
| 20260508090104 | 46 | 0 | 0.0 | 1.0 | 0.00 | 0.00 | 0.00 | 94 | 1017.6 |
| 20260508085526 | 46 | 121 | 0.0 | 1.0 | 0.00 | 0.00 | 0.00 | 94 | 1017.5 |
| 20260508085026 | 46 | 121 | 0.0 | 1.0 | 0.00 | 0.00 | 0.00 | 94 | 1017.5 |
| 20260508084542 | 46 | 0 | 0.0 | 1.0 | 0.00 | 0.00 | 0.00 | 94 | 1017.6 |
| 20260508084028 | 46 | 121 | 0.0 | 1.0 | 0.00 | 0.00 | 0.00 | 93 | 1017.6 |
| 20260508083524 | 46 | 121 | 1.0 | 1.0 | 0.00 | 0.00 | 0.00 | 94 | 1017.6 |
| 20260508083043 | 46 | 121 | 0.0 | 1.0 | 0.00 | 0.00 | 0.00 | 93 | 1017.5 |
| 20260508082529 | 46 | 121 | 0.0 | 1.0 | 0.00 | 0.00 | 0.00 | 93 | 1017.5 |
| 20260508082030 | 46 | 0 | 0.0 | 1.0 | 0.00 | 0.00 | 0.00 | 93 | 1017.5 |
| 20260508081541 | 46 | 121 | 0.0 | 1.0 | 0.00 | 0.00 | 0.00 | 93 | 1017.5 |
| 20260508081028 | 47 | 0 | 0.0 | 1.0 | 0.00 | 0.00 | 0.00 | 93 | 1017.5 |
| 20260508080529 | 47 | 121 | 0.0 | 1.0 | 0.00 | 0.00 | 0.00 | 93 | 1017.4 |
| 20260508080040 | 46 | 143 | 0.0 | 1.0 | 0.00 | 0.00 | 0.00 | 93 | 1017.4 |
| 20260508075527 | 46 | 143 | 0.0 | 1.0 | 0.00 | 0.00 | 0.00 | 93 | 1017.4 |
| 20260508075027 | 47 | 123 | 0.0 | 1.0 | 0.00 | 0.00 | 0.00 | 93 | 1017.3 |
| 20260508074544 | 47 | 123 | 0.0 | 0.0 | 0.00 | 0.00 | 0.00 | 92 | 1017.3 |
| 20260508074025 | 47 | 0 | 0.0 | 0.0 | 0.00 | 0.00 | 0.00 | 92 | 1017.2 |
| 20260508073527 | 47 | 0 | 0.0 | 0.0 | 0.00 | 0.00 | 0.00 | 92 | 1017.3 |
| 20260508073040 | 47 | 0 | 0.0 | 1.0 | 0.00 | 0.00 | 0.00 | 91 | 1017.1 |
| 20260508072530 | 48 | 0 | 0.0 | 1.0 | 0.00 | 0.00 | 0.00 | 92 | 1017.1 |
| 20260508072029 | 48 | 121 | 1.0 | 1.0 | 0.00 | 0.00 | 0.00 | 92 | 1017.2 |
| 20260508071554 | 47 | 121 | 0.0 | 1.0 | 0.00 | 0.00 | 0.00 | 92 | 1017.1 |
| 20260508071028 | 48 | 121 | 0.0 | 1.0 | 0.00 | 0.00 | 0.00 | 92 | 1017.1 |
| 20260508070526 | 48 | 121 | 0.0 | 1.0 | 0.00 | 0.00 | 0.00 | 92 | 1017.2 |
| 20260508070044 | 48 | 0 | 0.0 | 1.0 | 0.00 | 0.00 | 0.00 | 92 | 1017.3 |
| 20260508065526 | 48 | 121 | 0.0 | 1.0 | 0.00 | 0.00 | 0.00 | 92 | 1017.3 |
| 20260508065025 | 48 | 121 | 1.0 | 1.0 | 0.00 | 0.00 | 0.00 | 92 | 1017.3 |
| 20260508064543 | 48 | 121 | 0.0 | 1.0 | 0.00 | 0.00 | 0.00 | 92 | 1017.4 |
| 20260508064026 | 48 | 121 | 0.0 | 1.0 | 0.00 | 0.00 | 0.00 | 91 | 1017.4 |
| 20260508063526 | 48 | 0 | 0.0 | 1.0 | 0.00 | 0.00 | 0.00 | 91 | 1017.3 |
| 20260508063041 | 48 | 0 | 0.0 | 1.0 | 0.00 | 0.00 | 0.00 | 91 | 1017.3 |
| 20260508062525 | 49 | 121 | 0.0 | 1.0 | 0.00 | 0.00 | 0.00 | 90 | 1017.4 |
| 20260508062025 | 49 | 0 | 0.0 | 1.0 | 0.00 | 0.00 | 0.00 | 90 | 1017.3 |
| 20260508061540 | 49 | 121 | 1.0 | 1.0 | 0.00 | 0.00 | 0.00 | 90 | 1017.3 |
| 20260508061026 | 49 | 0 | 0.0 | 1.0 | 0.00 | 0.00 | 0.00 | 90 | 1017.3 |
| 20260508060525 | 49 | 121 | 0.0 | 1.0 | 0.00 | 0.00 | 0.00 | 89 | 1017.3 |
| 20260508060040 | 50 | 121 | 0.0 | 1.0 | 0.00 | 0.00 | 0.00 | 88 | 1017.3 |
| 20260508055524 | 50 | 130 | 1.0 | 2.0 | 0.00 | 0.00 | 0.00 | 88 | 1017.3 |
| 20260508055024 | 50 | 137 | 1.0 | 2.0 | 0.00 | 0.00 | 0.00 | 88 | 1017.4 |
| 20260508054540 | 50 | 137 | 1.0 | 1.0 | 0.00 | 0.00 | 0.00 | 88 | 1017.3 |
| 20260508054025 | 50 | 137 | 0.0 | 1.0 | 0.00 | 0.00 | 0.00 | 88 | 1017.3 |
| 20260508053527 | 50 | 137 | 0.0 | 1.0 | 0.00 | 0.00 | 0.00 | 87 | 1017.3 |
| 20260508053100 | 51 | 0 | 0.0 | 2.0 | 0.00 | 0.00 | 0.00 | 87 | 1017.4 |
| 20260508052525 | 51 | 136 | 1.0 | 3.0 | 0.00 | 0.00 | 0.00 | 88 | 1017.5 |
| 20260508052023 | 50 | 138 | 1.0 | 4.0 | 0.00 | 0.00 | 0.00 | 87 | 1017.4 |
| 20260508051545 | 51 | 156 | 2.0 | 4.0 | 0.00 | 0.00 | 0.00 | 86 | 1017.5 |
| 20260508051025 | 51 | 156 | 1.0 | 3.0 | 0.00 | 0.00 | 0.00 | 85 | 1017.4 |
| 20260508050525 | 52 | 128 | 1.0 | 2.0 | 0.00 | 0.00 | 0.00 | 85 | 1017.4 |
| 20260508050042 | 52 | 160 | 1.0 | 2.0 | 0.00 | 0.00 | 0.00 | 85 | 1017.4 |
| 20260508045528 | 52 | 163 | 1.0 | 2.0 | 0.00 | 0.00 | 0.00 | 85 | 1017.4 |
| 20260508045024 | 52 | 156 | 1.0 | 2.0 | 0.00 | 0.00 | 0.00 | 84 | 1017.5 |
| 20260508044540 | 53 | 156 | 2.0 | 2.0 | 0.00 | 0.00 | 0.00 | 83 | 1017.4 |
| 20260508044027 | 53 | 159 | 0.0 | 1.0 | 0.00 | 0.00 | 0.00 | 82 | 1017.4 |
| 20260508043525 | 53 | 159 | 0.0 | 1.0 | 0.00 | 0.00 | 0.00 | 83 | 1017.3 |
| 20260508043047 | 53 | 0 | 0.0 | 1.0 | 0.00 | 0.00 | 0.00 | 83 | 1017.3 |
| 20260508042524 | 53 | 146 | 0.0 | 1.0 | 0.00 | 0.00 | 0.00 | 83 | 1017.4 |
| 20260508042024 | 53 | 0 | 0.0 | 1.0 | 0.00 | 0.00 | 0.00 | 84 | 1017.4 |
| 20260508041610 | 53 | 165 | 0.0 | 1.0 | 0.00 | 0.00 | 0.00 | 84 | 1017.4 |
| 20260508041024 | 53 | 165 | 0.0 | 1.0 | 0.00 | 0.00 | 0.00 | 83 | 1017.5 |
| 20260508040524 | 54 | 166 | 0.0 | 1.0 | 0.00 | 0.00 | 0.00 | 84 | 1017.4 |
| 20260508040104 | 54 | 0 | 0.0 | 1.0 | 0.00 | 0.00 | 0.00 | 82 | 1017.4 |
| 20260508035527 | 55 | 0 | 0.0 | 1.0 | 0.00 | 0.00 | 0.00 | 79 | 1017.3 |
| 20260508035027 | 55 | 0 | 0.0 | 1.0 | 0.00 | 0.00 | 0.00 | 78 | 1017.2 |
| 20260508034541 | 56 | 0 | 0.0 | 1.0 | 0.00 | 0.00 | 0.00 | 78 | 1017.2 |
| 20260508034025 | 56 | 0 | 0.0 | 1.0 | 0.00 | 0.00 | 0.00 | 77 | 1017.1 |
| 20260508033524 | 57 | 126 | 0.0 | 2.0 | 0.00 | 0.00 | 0.00 | 76 | 1016.9 |
| 20260508033040 | 57 | 193 | 1.0 | 3.0 | 0.00 | 0.00 | 0.00 | 75 | 1016.8 |
| 20260508032525 | 58 | 205 | 1.0 | 3.0 | 0.00 | 0.00 | 0.00 | 73 | 1016.8 |
| 20260508032025 | 58 | 142 | 1.0 | 2.0 | 0.00 | 0.00 | 0.00 | 73 | 1016.9 |
| 20260508031540 | 59 | 151 | 1.0 | 2.0 | 0.00 | 0.00 | 0.00 | 72 | 1016.9 |
| 20260508031024 | 59 | 236 | 0.0 | 4.0 | 0.00 | 0.00 | 0.00 | 71 | 1016.8 |
| 20260508030528 | 60 | 219 | 1.0 | 4.0 | 0.00 | 0.00 | 0.00 | 71 | 1016.8 |
| 20260508030047 | 61 | 219 | 1.0 | 3.0 | 0.00 | 0.00 | 0.00 | 69 | 1016.7 |
| 20260508025524 | 62 | 217 | 1.0 | 6.0 | 0.00 | 0.00 | 0.00 | 69 | 1016.7 |
| 20260508025026 | 62 | 244 | 2.0 | 6.0 | 0.00 | 0.00 | 0.00 | 67 | 1016.6 |
| 20260508024546 | 63 | 311 | 1.0 | 3.0 | 0.00 | 0.00 | 0.00 | 66 | 1016.6 |
| 20260508024026 | 64 | 270 | 0.0 | 8.0 | 0.00 | 0.00 | 0.00 | 65 | 1016.5 |
| 20260508023528 | 65 | 281 | 2.0 | 8.0 | 0.00 | 0.00 | 0.00 | 63 | 1016.5 |
| 20260508023041 | 66 | 277 | 3.0 | 9.0 | 0.00 | 0.00 | 0.00 | 60 | 1016.6 |
| 20260508022526 | 67 | 341 | 3.0 | 9.0 | 0.00 | 0.00 | 0.00 | 58 | 1016.5 |
| 20260508022026 | 69 | 294 | 1.0 | 4.0 | 0.00 | 0.00 | 0.00 | 55 | 1016.5 |
| 20260508021540 | 70 | 172 | 0.0 | 1.0 | 0.00 | 0.00 | 0.00 | 54 | 1016.4 |
| 20260508021025 | 69 | 142 | 0.0 | 3.0 | 0.00 | 0.00 | 0.00 | 56 | 1016.5 |
| 20260508020627 | 68 | 142 | 1.0 | 3.0 | 0.00 | 0.00 | 0.00 | 55 | 1016.6 |
| 20260508020045 | 67 | 0 | 0.0 | 3.0 | 0.00 | 0.00 | 0.00 | 56 | 1016.6 |
| 20260508015525 | 67 | 92 | 0.0 | 3.0 | 0.00 | 0.00 | 0.00 | 56 | 1016.6 |
| 20260508015025 | 67 | 10 | 1.0 | 9.0 | 0.00 | 0.00 | 0.00 | 56 | 1016.6 |
| 20260508014541 | 67 | 16 | 2.0 | 9.0 | 0.00 | 0.00 | 0.00 | 56 | 1016.7 |
| 20260508014026 | 68 | 338 | 2.0 | 7.0 | 0.00 | 0.00 | 0.00 | 55 | 1016.7 |
| 20260508013527 | 69 | 336 | 3.0 | 7.0 | 0.00 | 0.00 | 0.00 | 55 | 1016.8 |
| 20260508013048 | 69 | 331 | 0.0 | 3.0 | 0.00 | 0.00 | 0.00 | 57 | 1016.8 |
| 20260508012525 | 69 | 309 | 1.0 | 4.0 | 0.00 | 0.00 | 0.00 | 53 | 1017.0 |
| 20260508012026 | 69 | 319 | 1.0 | 4.0 | 0.00 | 0.00 | 0.00 | 54 | 1017.0 |
| 20260508011551 | 70 | 0 | 0.0 | 2.0 | 0.00 | 0.00 | 0.00 | 53 | 1017.0 |
| 20260508011025 | 69 | 157 | 0.0 | 3.0 | 0.00 | 0.00 | 0.00 | 59 | 1017.0 |
| 20260508010525 | 68 | 138 | 0.0 | 3.0 | 0.00 | 0.00 | 0.00 | 56 | 1017.1 |
| 20260508010042 | 67 | 115 | 2.0 | 3.0 | 0.00 | 0.00 | 0.00 | 55 | 1017.1 |
| 20260508005526 | 67 | 94 | 0.0 | 7.0 | 0.00 | 0.00 | 0.00 | 56 | 1017.1 |
| 20260508005028 | 68 | 98 | 3.0 | 7.0 | 0.00 | 0.00 | 0.00 | 56 | 1017.2 |
| 20260508004543 | 69 | 109 | 0.0 | 3.0 | 0.00 | 0.00 | 0.00 | 56 | 1017.2 |
| 20260508004026 | 69 | 342 | 0.0 | 3.0 | 0.00 | 0.00 | 0.00 | 55 | 1017.3 |
| 20260508003525 | 69 | 107 | 1.0 | 3.0 | 0.00 | 0.00 | 0.00 | 53 | 1017.3 |
| 20260508003041 | 69 | 104 | 1.0 | 5.0 | 0.00 | 0.00 | 0.00 | 54 | 1017.3 |
| 20260508002525 | 68 | 257 | 1.0 | 5.0 | 0.00 | 0.00 | 0.00 | 55 | 1017.4 |
| 20260508002026 | 68 | 199 | 2.0 | 5.0 | 0.00 | 0.00 | 0.00 | 56 | 1017.5 |
| 20260508001542 | 69 | 246 | 3.0 | 5.0 | 0.00 | 0.00 | 0.00 | 54 | 1017.6 |
| 20260508001025 | 70 | 174 | 0.0 | 3.0 | 0.00 | 0.00 | 0.00 | 53 | 1017.4 |
| 20260508000526 | 69 | 266 | 0.0 | 3.0 | 0.00 | 0.00 | 0.00 | 58 | 1017.6 |
| 20260508000038 | 68 | 229 | 1.0 | 4.0 | 0.00 | 0.00 | 0.00 | 54 | 1017.6 |
| 20260507235525 | 68 | 245 | 0.0 | 4.0 | 0.00 | 0.00 | 0.00 | 57 | 1017.6 |
| 20260507235025 | 67 | 238 | 2.0 | 4.0 | 0.00 | 0.00 | 0.00 | 55 | 1017.6 |
| 20260507234541 | 67 | 0 | 1.0 | 5.0 | 0.00 | 0.00 | 0.00 | 55 | 1017.7 |
| 20260507234025 | 67 | 138 | 2.0 | 5.0 | 0.00 | 0.00 | 0.00 | 56 | 1017.8 |
| 20260507233526 | 67 | 150 | 3.0 | 5.0 | 0.00 | 0.00 | 0.00 | 55 | 1017.8 |
| 20260507233054 | 67 | 138 | 1.0 | 3.0 | 0.00 | 0.00 | 0.00 | 55 | 1017.9 |
| 20260507232525 | 67 | 123 | 1.0 | 4.0 | 0.00 | 0.00 | 0.00 | 58 | 1018.0 |
| 20260507232025 | 66 | 0 | 2.0 | 7.0 | 0.00 | 0.00 | 0.00 | 57 | 1018.1 |
| 20260507231540 | 66 | 282 | 2.0 | 7.0 | 0.00 | 0.00 | 0.00 | 56 | 1018.1 |
| 20260507231025 | 66 | 284 | 3.0 | 7.0 | 0.00 | 0.00 | 0.00 | 56 | 1018.1 |
| 20260507230526 | 66 | 242 | 2.0 | 7.0 | 0.00 | 0.00 | 0.00 | 56 | 1018.2 |
| 20260507230040 | 66 | 234 | 2.0 | 7.0 | 0.00 | 0.00 | 0.00 | 58 | 1018.3 |
| 20260507225527 | 66 | 278 | 3.0 | 5.0 | 0.00 | 0.00 | 0.00 | 56 | 1018.3 |
| 20260507225029 | 66 | 289 | 2.0 | 4.0 | 0.00 | 0.00 | 0.00 | 56 | 1018.3 |
| 20260507224553 | 66 | 246 | 1.0 | 4.0 | 0.00 | 0.00 | 0.00 | 57 | 1018.5 |
| 20260507224025 | 66 | 294 | 2.0 | 6.0 | 0.00 | 0.00 | 0.00 | 56 | 1018.6 |
| 20260507223527 | 66 | 227 | 3.0 | 8.0 | 0.00 | 0.00 | 0.00 | 62 | 1018.6 |
| 20260507223042 | 66 | 222 | 4.0 | 8.0 | 0.00 | 0.00 | 0.00 | 57 | 1018.5 |
| 20260507222528 | 67 | 132 | 3.0 | 8.0 | 0.00 | 0.00 | 0.00 | 59 | 1018.6 |
| 20260507222025 | 66 | 67 | 1.0 | 3.0 | 0.00 | 0.00 | 0.00 | 61 | 1018.7 |
| 20260507221540 | 66 | 65 | 1.0 | 8.0 | 0.00 | 0.00 | 0.00 | 58 | 1018.8 |
| 20260507221024 | 65 | 107 | 3.0 | 8.0 | 0.00 | 0.00 | 0.00 | 59 | 1018.9 |
| 20260507220526 | 65 | 173 | 2.0 | 6.0 | 0.00 | 0.00 | 0.00 | 60 | 1019.1 |
| 20260507220042 | 64 | 269 | 2.0 | 4.0 | 0.00 | 0.00 | 0.00 | 60 | 1019.0 |
| 20260507215529 | 64 | 250 | 2.0 | 4.0 | 0.00 | 0.00 | 0.00 | 63 | 1019.2 |
| 20260507215025 | 64 | 241 | 2.0 | 8.0 | 0.00 | 0.00 | 0.00 | 60 | 1019.3 |
| 20260507214541 | 64 | 276 | 3.0 | 8.0 | 0.00 | 0.00 | 0.00 | 64 | 1019.2 |
| 20260507214028 | 64 | 280 | 3.0 | 8.0 | 0.00 | 0.00 | 0.00 | 61 | 1019.2 |
| 20260507213525 | 64 | 42 | 1.0 | 7.0 | 0.00 | 0.00 | 0.00 | 64 | 1019.2 |
| 20260507213041 | 64 | 299 | 2.0 | 7.0 | 0.00 | 0.00 | 0.00 | 62 | 1019.3 |
| 20260507212525 | 64 | 270 | 2.0 | 6.0 | 0.00 | 0.00 | 0.00 | 62 | 1019.2 |
| 20260507212025 | 63 | 60 | 1.0 | 9.0 | 0.00 | 0.00 | 0.00 | 64 | 1019.3 |
| 20260507211542 | 62 | 313 | 4.0 | 9.0 | 0.00 | 0.00 | 0.00 | 63 | 1019.4 |
| 20260507211027 | 62 | 316 | 5.0 | 9.0 | 0.00 | 0.00 | 0.00 | 61 | 1019.3 |
| 20260507210525 | 63 | 294 | 2.0 | 8.0 | 0.00 | 0.00 | 0.00 | 63 | 1019.5 |
| 20260507210049 | 63 | 128 | 1.0 | 6.0 | 0.00 | 0.00 | 0.00 | 62 | 1019.6 |
| 20260507205525 | 63 | 242 | 3.0 | 6.0 | 0.00 | 0.00 | 0.00 | 61 | 1019.7 |
| 20260507205026 | 63 | 76 | 1.0 | 5.0 | 0.00 | 0.00 | 0.00 | 65 | 1019.7 |
| 20260507204545 | 62 | 162 | 2.0 | 8.0 | 0.00 | 0.00 | 0.00 | 64 | 1019.8 |
| 20260507204025 | 62 | 39 | 3.0 | 10.0 | 0.00 | 0.00 | 0.00 | 66 | 1019.9 |
| 20260507203526 | 62 | 345 | 2.0 | 10.0 | 0.00 | 0.00 | 0.00 | 65 | 1020.0 |
| 20260507203043 | 62 | 252 | 4.0 | 10.0 | 0.00 | 0.00 | 0.00 | 65 | 1020.0 |
| 20260507202525 | 62 | 296 | 2.0 | 6.0 | 0.00 | 0.00 | 0.00 | 65 | 1020.1 |
| 20260507202025 | 61 | 255 | 1.0 | 7.0 | 0.00 | 0.00 | 0.00 | 63 | 1020.1 |
| 20260507201540 | 62 | 136 | 2.0 | 8.0 | 0.00 | 0.00 | 0.00 | 63 | 1020.2 |
| 20260507201025 | 62 | 213 | 5.0 | 8.0 | 0.00 | 0.00 | 0.00 | 64 | 1020.1 |
| 20260507200527 | 62 | 157 | 3.0 | 8.0 | 0.00 | 0.00 | 0.00 | 63 | 1020.2 |